Johnstown, PA

5:58 PM EST on November 24, 2017 (GMT -0500)
Johnstown-Cambria County

Weather History for KJST - January, 2013

Change the Weather History Date:

Tuesday, January 22, 2013

  Actual Average Record
Temperature  
Mean Temperature 4 °F 25 °F  
Max Temperature 6 °F 32 °F 70 °F (1906)
Min Temperature 1 °F 18 °F -9 °F (1984)
Degree Days  
Heating Degree Days 62 40  
Month to date heating degree days 873  
Since 1 July heating degree days 3457  
Cooling Degree Days 0 0  
Month to date cooling degree days 0  
Year to date cooling degree days 0  
Moisture  
Dew Point -4 °F    
Average Humidity 72    
Maximum Humidity 85    
Minimum Humidity 56    
Precipitation  
Precipitation 0.00 in 0.07 in 1.02 in (1949)
Month to date precipitation 2.17  
Year to date precipitation 2.17  
Sea Level Pressure  
Sea Level Pressure 30.02 in    
Wind  
Wind Speed 17 mph (West)    
Max Wind Speed 24 mph    
Max Gust Speed 34 mph    
Visibility 4 miles    
Events Fog , Snow    
T = Trace of Precipitation, MM = Missing Value Source: NWS Daily Summary

Daily Weather History Graph

Daily Weather History Graph

Search for Another Location

Airport or City:

Trip Planner

Search our weather history database for the weather conditions in past years. The results will help you decide how hot, cold, wet, or windy it might be!

Date:

Astronomy

Jan. 22, 2013 Rise Set
Actual Time 7:32 AM EST 5:22 PM EST
Civil Twilight 7:02 AM EST 5:51 PM EST
Nautical Twilight 6:29 AM EST 6:24 PM EST
Astronomical Twilight 5:57 AM EST 6:56 PM EST
Moon 1:43 PM EST (1/22) 3:52 AM EST (1/22)
Length of Visible Light 10h 48m
Length of Day
9h 49m
Waxing Gibbous, 82% of the Moon is Illuminated
Jan 22
Waxing Gibbous
Jan 26
Full
Feb 3
Last Quarter
Feb 10
New
Feb 17
First Quarter

Hourly Weather History & Observations

Time (EST) Temp. Windchill Dew Point Humidity Pressure Visibility Wind Dir Wind Speed Gust Speed Precip Events Conditions
12:54 AM 6.1 °F -12.2 °F -2.0 °F 69% 29.97 in 7.0 mi West 16.1 mph 25.3 mph 0.00 in   Overcast
1:14 AM 6.8 °F -13.4 °F -0.4 °F 72% 29.84 in 2.5 mi West 20.7 mph 28.8 mph 0.00 in Snow Light Snow
1:35 AM 6.8 °F -11.3 °F -0.4 °F 72% 29.85 in 4.0 mi West 16.1 mph 31.1 mph 0.00 in   Overcast
1:48 AM 6.8 °F -13.4 °F -0.4 °F 72% 29.85 in 1.5 mi West 20.7 mph 28.8 mph 0.00 in Snow Light Snow
1:54 AM 6.1 °F -13.8 °F 1.0 °F 80% 29.98 in 0.8 mi West 19.6 mph 26.5 mph 0.00 in Snow Light Snow
2:04 AM 5.0 °F -15.2 °F 1.4 °F 85% 29.86 in 0.5 mi West 19.6 mph 29.9 mph 0.00 in Fog , Snow Light Snow
2:11 AM 5.0 °F -15.2 °F -0.4 °F 78% 29.86 in 1.2 mi West 19.6 mph 32.2 mph 0.00 in Snow Light Snow
2:29 AM 5.0 °F -14.7 °F -0.4 °F 78% 29.87 in 0.5 mi West 18.4 mph 29.9 mph 0.00 in Snow Snow
2:54 AM 3.9 °F -15.6 °F -0.9 °F 80% 30.01 in 1.0 mi West 17.3 mph 26.5 mph 0.00 in Snow Light Snow
3:08 AM 3.2 °F -15.9 °F -0.4 °F 85% 29.88 in 0.5 mi West 16.1 mph 26.5 mph 0.00 in Fog , Snow Snow
3:17 AM 3.2 °F -18.1 °F -0.4 °F 85% 29.89 in 1.0 mi West 20.7 mph 29.9 mph 0.00 in Snow Light Snow
3:35 AM 3.2 °F -17.1 °F -2.2 °F 78% 29.89 in 3.0 mi West 18.4 mph 25.3 mph 0.00 in Snow Light Snow
3:54 AM 3.0 °F -15.5 °F -2.9 °F 76% 30.02 in 2.5 mi West 15.0 mph 26.5 mph 0.00 in Snow Light Snow
4:13 AM 3.2 °F -16.5 °F -2.2 °F 78% 29.90 in 0.8 mi West 17.3 mph 32.2 mph 0.00 in Snow Light Snow
4:24 AM 3.2 °F -15.3 °F -2.2 °F 78% 29.90 in 0.8 mi West 15.0 mph 25.3 mph 0.00 in Snow Light Snow
4:36 AM 3.2 °F -14.6 °F -2.2 °F 78% 29.90 in 2.0 mi West 13.8 mph 23.0 mph 0.00 in Snow Light Snow
4:43 AM 3.2 °F -18.6 °F -4.0 °F 72% 29.91 in 2.0 mi WNW 21.9 mph 27.6 mph 0.00 in   Overcast
4:50 AM 3.2 °F -18.6 °F -5.8 °F 66% 29.91 in 1.8 mi WNW 21.9 mph 27.6 mph 0.00 in   Overcast
4:54 AM 3.0 °F -16.1 °F -5.1 °F 69% 30.04 in 3.0 mi WNW 16.1 mph 26.5 mph 0.00 in   Overcast
5:18 AM 1.4 °F -20.5 °F -5.8 °F 72% 29.91 in 3.0 mi West 20.7 mph 26.5 mph 0.00 in   Overcast
5:23 AM 1.4 °F -18.8 °F -5.8 °F 72% 29.91 in 2.5 mi West 17.3 mph 27.6 mph 0.00 in   Overcast
5:49 AM 1.4 °F -18.2 °F -5.8 °F 72% 29.92 in 4.0 mi West 16.1 mph 25.3 mph 0.00 in   Overcast
5:54 AM 1.9 °F -18.7 °F -6.0 °F 69% 30.06 in 4.0 mi West 18.4 mph 25.3 mph 0.00 in Snow Light Snow
6:02 AM 1.4 °F -19.4 °F -5.8 °F 72% 29.93 in 1.8 mi West 18.4 mph 25.3 mph 0.00 in Snow Light Snow
6:22 AM 1.4 °F -19.9 °F -5.8 °F 72% 29.94 in 2.5 mi WNW 19.6 mph 25.3 mph 0.00 in Snow Light Snow
6:29 AM 1.4 °F -17.6 °F -5.8 °F 72% 29.94 in 3.0 mi West 15.0 mph 24.2 mph 0.00 in Snow Light Snow
7:32 AM 1.4 °F -21.9 °F -5.8 °F 72% 29.95 in 1.8 mi West 24.2 mph 32.2 mph 0.00 in Snow Light Snow
7:54 AM 1.0 °F -19.3 °F -6.0 °F 72% 30.11 in 1.0 mi West 17.3 mph 31.1 mph 0.00 in Snow Light Snow
8:06 AM 1.4 °F -17.6 °F -4.0 °F 78% 29.97 in 0.8 mi West 15.0 mph 23.0 mph 0.00 in Snow Light Snow
8:13 AM 1.4 °F -19.9 °F -4.0 °F 78% 29.97 in 1.0 mi West 19.6 mph 25.3 mph 0.00 in Snow Light Snow
8:31 AM 1.4 °F -19.4 °F -5.8 °F 72% 29.98 in 2.0 mi West 18.4 mph 25.3 mph 0.00 in   Overcast
8:54 AM 1.0 °F -20.4 °F -6.0 °F 72% 30.14 in 2.0 mi West 19.6 mph 31.1 mph 0.00 in Snow Light Snow
9:09 AM 1.4 °F -19.4 °F -7.6 °F 66% 30.00 in 4.0 mi West 18.4 mph 28.8 mph 0.00 in   Overcast
9:54 AM 1.9 °F -17.5 °F -6.0 °F 69% 30.18 in 2.5 mi West 16.1 mph 24.2 mph 0.00 in Snow Light Snow
10:09 AM 1.4 °F -20.5 °F -5.8 °F 72% 30.02 in 1.8 mi West 20.7 mph 28.8 mph 0.00 in Snow Light Snow
10:18 AM 1.4 °F -20.5 °F -5.8 °F 72% 30.01 in 2.0 mi West 20.7 mph 26.5 mph 0.00 in Snow Light Snow
10:54 AM 3.0 °F -15.5 °F -5.1 °F 69% 30.17 in 1.5 mi West 15.0 mph 24.2 mph 0.00 in Snow Light Snow
11:16 AM 3.2 °F -18.6 °F -4.0 °F 72% 30.01 in 0.8 mi West 21.9 mph 29.9 mph 0.00 in Snow Light Snow
11:34 AM 3.2 °F -15.9 °F -4.0 °F 72% 30.01 in 1.5 mi West 16.1 mph 24.2 mph 0.00 in Snow Light Snow
11:54 AM 5.0 °F -16.7 °F -6.0 °F 61% 30.16 in 2.5 mi West 23.0 mph 31.1 mph 0.00 in Snow Blowing Snow
12:03 PM 5.0 °F -14.2 °F -5.8 °F 61% 29.99 in 1.5 mi West 17.3 mph 32.2 mph N/A Snow Blowing Snow
12:54 PM 3.9 °F -16.6 °F -5.1 °F 66% 30.14 in 1.5 mi WNW 19.6 mph 34.5 mph 0.00 in Snow Light Snow
1:15 PM 5.0 °F -17.1 °F -5.8 °F 61% 29.97 in 3.0 mi West 24.2 mph 31.1 mph 0.00 in Snow Blowing Snow
1:26 PM 3.2 °F -17.6 °F -5.8 °F 66% 29.97 in 2.0 mi West 19.6 mph 29.9 mph 0.00 in Snow Light Snow
1:52 PM 5.0 °F -14.2 °F -4.0 °F 66% 29.98 in 5.0 mi West 17.3 mph 27.6 mph 0.00 in Snow Light Snow
1:54 PM 5.0 °F -14.7 °F -5.1 °F 63% 30.13 in 6.0 mi West 18.4 mph 28.8 mph 0.00 in Snow Light Snow
2:12 PM 6.8 °F -11.8 °F -5.8 °F 56% 29.98 in 9.0 mi West 17.3 mph 34.5 mph 0.00 in   Overcast
2:33 PM 5.0 °F -13.6 °F -5.8 °F 61% 29.99 in 10.0 mi West 16.1 mph 29.9 mph 0.00 in   Mostly Cloudy
2:54 PM 5.0 °F -15.2 °F -5.1 °F 63% 30.16 in 8.0 mi WNW 19.6 mph 31.1 mph 0.00 in   Overcast
3:54 PM 5.0 °F -13.0 °F -5.1 °F 63% 30.17 in 7.0 mi WNW 15.0 mph 21.9 mph 0.00 in   Overcast
4:24 PM 6.8 °F -11.3 °F -5.8 °F 56% 30.01 in 10.0 mi WNW 16.1 mph 23.0 mph N/A   Overcast
4:34 PM 5.0 °F -13.6 °F -5.8 °F 61% 30.01 in 10.0 mi West 16.1 mph 25.3 mph N/A   Mostly Cloudy
4:54 PM 3.9 °F -14.3 °F -5.1 °F 66% 30.19 in 7.0 mi WNW 15.0 mph - N/A   Overcast
5:54 PM 3.9 °F -14.3 °F -2.9 °F 73% 30.22 in 4.0 mi WNW 15.0 mph - 0.00 in Snow Light Snow
6:07 PM 3.2 °F -14.6 °F -2.2 °F 78% 30.05 in 2.5 mi WNW 13.8 mph - 0.00 in Snow Light Snow
6:15 PM 3.2 °F -15.3 °F -2.2 °F 78% 30.05 in 3.0 mi WNW 15.0 mph - 0.00 in Snow Light Snow
6:54 PM 3.0 °F -15.5 °F -4.0 °F 73% 30.22 in 10.0 mi WNW 15.0 mph 25.3 mph 0.00 in   Overcast
7:51 PM 3.2 °F -15.3 °F -2.2 °F 78% 30.06 in 8.0 mi West 15.0 mph 20.7 mph N/A   Overcast
7:54 PM 3.0 °F -14.8 °F -2.9 °F 76% 30.24 in 9.0 mi WNW 13.8 mph 20.7 mph N/A   Overcast
8:54 PM 3.0 °F -10.5 °F -2.9 °F 76% 30.25 in 4.0 mi West 8.1 mph - 0.00 in Snow Light Snow
9:26 PM 3.2 °F -11.3 °F -2.2 °F 78% 30.07 in 3.0 mi West 9.2 mph - 0.00 in Snow Light Snow
9:54 PM 3.0 °F -8.0 °F -2.9 °F 76% 30.25 in 4.0 mi West 5.8 mph - 0.00 in   Haze
10:05 PM 3.2 °F -6.2 °F -2.2 °F 78% 30.07 in 5.0 mi Variable 4.6 mph - N/A   Haze
10:23 PM 3.2 °F -12.2 °F -4.0 °F 72% 30.07 in 4.0 mi WNW 10.4 mph 17.3 mph N/A   Haze
10:54 PM 1.9 °F -5.6 °F -4.0 °F 76% 30.25 in 4.0 mi West 3.5 mph - N/A   Haze
11:30 PM 1.4 °F -13.5 °F -2.2 °F 85% 30.06 in 2.5 mi West 9.2 mph - N/A   Haze
11:38 PM 1.4 °F -15.3 °F -2.2 °F 85% 30.06 in 3.0 mi West 11.5 mph 16.1 mph N/A   Haze
11:54 PM 1.9 °F -10.6 °F -4.0 °F 76% 30.22 in 7.0 mi West 6.9 mph 18.4 mph N/A   Overcast